Year,Month,Day,Hour,Minute,Value (Times are PST for temperature in C)
2005,05,22,09,40,12.80
2005,05,22,09,41,12.90
2005,05,22,09,42,13.00
2005,05,22,09,43,13.00
2005,05,22,09,44,13.00
2005,05,22,09,45,13.20
2005,05,22,09,46,13.30
2005,05,22,09,47,13.30
2005,05,22,09,48,13.40
2005,05,22,09,49,13.50
2005,05,22,09,50,13.70
2005,05,22,09,51,13.70
2005,05,22,09,52,13.70
2005,05,22,09,53,13.70
2005,05,22,09,54,13.60
2005,05,22,09,55,13.60
2005,05,22,09,56,13.60
2005,05,22,09,57,13.50
2005,05,22,09,58,13.40
2005,05,22,09,59,13.30
2005,05,22,10,00,13.30
2005,05,22,10,01,13.40
2005,05,22,10,02,13.40
2005,05,22,10,03,13.30
2005,05,22,10,04,13.30
2005,05,22,10,05,13.10
2005,05,22,10,06,13.00
2005,05,22,10,07,13.00
2005,05,22,10,08,12.90
2005,05,22,10,09,12.80
2005,05,22,10,10,12.90
2005,05,22,10,11,12.90
2005,05,22,10,12,13.00
2005,05,22,10,13,13.00
2005,05,22,10,14,13.20
2005,05,22,10,15,13.30
2005,05,22,10,16,13.30
2005,05,22,10,17,13.30
2005,05,22,10,18,13.30
2005,05,22,10,19,13.30
2005,05,22,10,20,13.50
2005,05,22,10,21,13.70
2005,05,22,10,22,13.80
2005,05,22,10,23,13.80
2005,05,22,10,24,14.10
2005,05,22,10,25,14.30
2005,05,22,10,26,14.50
2005,05,22,10,27,14.60
2005,05,22,10,28,14.60
2005,05,22,10,29,14.60
2005,05,22,10,30,14.50
2005,05,22,10,31,14.40
2005,05,22,10,32,14.50
2005,05,22,10,33,14.40
2005,05,22,10,34,14.30
2005,05,22,10,35,14.20
2005,05,22,10,36,14.00
2005,05,22,10,37,13.60
2005,05,22,10,38,13.30
2005,05,22,10,39,13.20
2005,05,22,10,40,13.10
2005,05,22,10,41,13.00
2005,05,22,10,42,12.80
2005,05,22,10,43,12.90
2005,05,22,10,44,12.90
2005,05,22,10,45,13.10
2005,05,22,10,46,13.10
2005,05,22,10,47,13.00
2005,05,22,10,48,13.10
2005,05,22,10,49,13.00
2005,05,22,10,50,12.80
2005,05,22,10,51,12.70
2005,05,22,10,52,12.60
2005,05,22,10,53,12.60
2005,05,22,10,54,12.60
2005,05,22,10,55,12.50
2005,05,22,10,56,12.60
2005,05,22,10,57,12.60
2005,05,22,10,58,12.70
2005,05,22,10,59,12.90
2005,05,22,11,00,13.00
2005,05,22,11,01,13.30
2005,05,22,11,02,13.40
2005,05,22,11,03,13.40
2005,05,22,11,04,13.30
2005,05,22,11,05,13.30
2005,05,22,11,06,13.30
2005,05,22,11,07,13.30
2005,05,22,11,08,13.20
2005,05,22,11,09,13.30
2005,05,22,11,10,13.30
2005,05,22,11,11,13.40
2005,05,22,11,12,13.50
2005,05,22,11,13,13.50
2005,05,22,11,14,13.60
2005,05,22,11,15,13.50
2005,05,22,11,16,13.50
2005,05,22,11,17,13.60
2005,05,22,11,18,13.50
2005,05,22,11,19,13.50
2005,05,22,11,20,13.60
2005,05,22,11,21,13.60
2005,05,22,11,22,13.70
2005,05,22,11,23,13.80
2005,05,22,11,24,13.90
2005,05,22,11,25,14.00
2005,05,22,11,26,14.00
2005,05,22,11,27,14.00
2005,05,22,11,28,14.00
2005,05,22,11,29,13.90
2005,05,22,11,30,14.00
2005,05,22,11,31,14.00
2005,05,22,11,32,14.00
2005,05,22,11,33,14.10
2005,05,22,11,34,14.10
2005,05,22,11,35,14.20
2005,05,22,11,36,14.20
2005,05,22,11,37,14.30
2005,05,22,11,38,14.30
2005,05,22,11,39,14.10
2005,05,22,11,40,14.10
2005,05,22,11,41,14.20
2005,05,22,11,42,14.20
2005,05,22,11,43,14.10
2005,05,22,11,44,14.10
2005,05,22,11,45,14.10
2005,05,22,11,46,14.10
2005,05,22,11,47,14.10
2005,05,22,11,48,14.10
2005,05,22,11,49,14.20
2005,05,22,11,50,14.30
2005,05,22,11,51,14.30
2005,05,22,11,52,14.30
2005,05,22,11,53,14.40
2005,05,22,11,54,14.40
2005,05,22,11,55,14.30
2005,05,22,11,56,14.50
2005,05,22,11,57,14.60
2005,05,22,11,58,14.50
2005,05,22,11,59,14.60
2005,05,22,12,00,14.60
2005,05,22,12,01,14.60
2005,05,22,12,02,14.70
2005,05,22,12,03,14.60
2005,05,22,12,06,14.60
2005,05,22,12,07,14.60
2005,05,22,12,08,14.50
2005,05,22,12,09,14.50
2005,05,22,12,10,14.60
2005,05,22,12,11,14.60
2005,05,22,12,12,14.70
2005,05,22,12,13,14.80
2005,05,22,12,14,14.70
2005,05,22,12,15,14.60
2005,05,22,12,16,14.60
2005,05,22,12,17,14.40
2005,05,22,12,18,14.30
2005,05,22,12,19,14.20
2005,05,22,12,20,14.20
2005,05,22,12,21,14.20
2005,05,22,12,22,14.20
2005,05,22,12,23,14.20
2005,05,22,12,24,14.30
2005,05,22,12,25,14.30
2005,05,22,12,26,14.20
2005,05,22,12,27,14.30
2005,05,22,12,28,14.40
2005,05,22,12,29,14.30
2005,05,22,12,30,14.40
2005,05,22,12,31,14.30
2005,05,22,12,32,14.30
2005,05,22,12,33,14.30
2005,05,22,12,34,14.30
2005,05,22,12,35,14.10
2005,05,22,12,36,14.10
2005,05,22,12,37,14.00
2005,05,22,12,38,14.00
2005,05,22,12,39,13.90
2005,05,22,12,40,14.00
2005,05,22,12,41,14.00
2005,05,22,12,42,14.10
2005,05,22,12,43,14.20
2005,05,22,12,44,14.30
2005,05,22,12,45,14.50
2005,05,22,12,46,14.60
2005,05,22,12,47,14.70
2005,05,22,12,48,14.70
2005,05,22,12,49,14.80
2005,05,22,12,50,14.90
2005,05,22,12,51,14.80
2005,05,22,12,52,14.70
2005,05,22,12,53,14.70
2005,05,22,12,54,14.70
2005,05,22,12,55,14.70
2005,05,22,12,56,14.60
2005,05,22,12,57,14.50
2005,05,22,12,58,14.50
2005,05,22,12,59,14.40
2005,05,22,13,00,14.30
2005,05,22,13,01,14.30
2005,05,22,13,02,14.20
2005,05,22,13,03,14.20
2005,05,22,13,04,14.20
2005,05,22,13,05,14.20
2005,05,22,13,06,14.00
2005,05,22,13,07,14.00
2005,05,22,13,08,14.00
2005,05,22,13,09,13.90
2005,05,22,13,10,13.90
2005,05,22,13,11,13.90
2005,05,22,13,12,13.90
2005,05,22,13,13,13.90
2005,05,22,13,14,13.80
2005,05,22,13,15,13.80
2005,05,22,13,16,13.70
2005,05,22,13,17,13.70
2005,05,22,13,18,13.70
2005,05,22,13,19,13.70
2005,05,22,13,20,13.70
2005,05,22,13,21,13.80
2005,05,22,13,22,13.80
2005,05,22,13,23,13.90
2005,05,22,13,24,14.00
2005,05,22,13,25,14.10
2005,05,22,13,26,14.20
2005,05,22,13,27,14.40
2005,05,22,13,28,14.40
2005,05,22,13,29,14.50
2005,05,22,13,30,14.60
2005,05,22,13,31,14.70
2005,05,22,13,32,14.60
2005,05,22,13,33,14.60
2005,05,22,13,34,14.60
2005,05,22,13,35,14.60
2005,05,22,13,36,14.50
2005,05,22,13,37,14.50
2005,05,22,13,38,14.50
2005,05,22,13,39,14.50
2005,05,22,13,40,14.40
2005,05,22,13,41,14.40
2005,05,22,13,42,14.30
2005,05,22,13,43,14.30
2005,05,22,13,44,14.40
2005,05,22,13,45,14.40
2005,05,22,13,46,14.30
2005,05,22,13,47,14.30
2005,05,22,13,48,14.40
2005,05,22,13,49,14.20
2005,05,22,13,50,14.20
2005,05,22,13,51,14.20
2005,05,22,13,52,14.20
2005,05,22,13,53,14.10
2005,05,22,13,54,13.90
2005,05,22,13,55,14.00
2005,05,22,13,56,13.90
2005,05,22,13,57,13.90
2005,05,22,13,58,13.90
2005,05,22,13,59,13.90
2005,05,22,14,00,13.90
2005,05,22,14,01,13.80
2005,05,22,14,02,13.80
2005,05,22,14,03,13.90
2005,05,22,14,04,14.00
2005,05,22,14,05,14.00
2005,05,22,14,06,13.90
2005,05,22,14,07,13.90
2005,05,22,14,08,13.90
2005,05,22,14,09,13.90
2005,05,22,14,10,13.90
2005,05,22,14,11,13.90
2005,05,22,14,12,14.00
2005,05,22,14,13,13.90
2005,05,22,14,14,13.90
2005,05,22,14,15,13.90
2005,05,22,14,16,13.90
2005,05,22,14,17,13.80
2005,05,22,14,18,13.70
2005,05,22,14,19,13.60
2005,05,22,14,20,13.50
2005,05,22,14,21,13.40
2005,05,22,14,22,13.30
2005,05,22,14,23,13.20
2005,05,22,14,24,13.10
2005,05,22,14,25,13.10
2005,05,22,14,26,13.10
2005,05,22,14,27,13.20
2005,05,22,14,28,13.30
2005,05,22,14,29,13.30
2005,05,22,14,30,13.20
2005,05,22,14,31,13.00
2005,05,22,14,32,12.90
2005,05,22,14,33,13.00
2005,05,22,14,34,13.00
2005,05,22,14,35,13.00
2005,05,22,14,36,13.10
2005,05,22,14,37,13.20
2005,05,22,14,38,13.20
2005,05,22,14,39,13.30
2005,05,22,14,40,13.30
2005,05,22,14,41,13.20
2005,05,22,14,42,13.20
2005,05,22,14,43,13.20
2005,05,22,14,44,13.20
2005,05,22,14,45,13.20
2005,05,22,14,46,13.30
2005,05,22,14,47,13.30
2005,05,22,14,48,13.30
2005,05,22,14,49,13.30
2005,05,22,14,50,13.40
2005,05,22,14,51,13.30
2005,05,22,14,52,13.30
2005,05,22,14,53,13.20
2005,05,22,14,54,13.20
2005,05,22,14,55,13.20
2005,05,22,14,56,13.10
2005,05,22,14,57,13.10
2005,05,22,14,58,13.10
2005,05,22,14,59,13.10
2005,05,22,15,00,13.00
2005,05,22,15,01,13.10
2005,05,22,15,02,13.00
2005,05,22,15,03,13.10
2005,05,22,15,04,13.30
2005,05,22,15,05,13.40
2005,05,22,15,06,13.50
2005,05,22,15,07,13.60
2005,05,22,15,08,13.60
2005,05,22,15,09,13.60
2005,05,22,15,10,13.70
2005,05,22,15,11,13.70
2005,05,22,15,12,13.80
2005,05,22,15,13,13.80
2005,05,22,15,14,14.00
2005,05,22,15,15,14.10
2005,05,22,15,16,14.20
2005,05,22,15,17,14.40
2005,05,22,15,18,14.50
2005,05,22,15,19,14.60
2005,05,22,15,20,14.70
2005,05,22,15,21,14.60
2005,05,22,15,22,14.60
2005,05,22,15,23,14.50
2005,05,22,15,24,14.50
2005,05,22,15,25,14.50
2005,05,22,15,26,14.40
2005,05,22,15,27,14.30
2005,05,22,15,28,14.30
2005,05,22,15,29,14.10
2005,05,22,15,30,14.10
2005,05,22,15,31,14.20
2005,05,22,15,32,14.20
2005,05,22,15,33,14.20
2005,05,22,15,34,14.30
2005,05,22,15,35,14.20
2005,05,22,15,36,14.20
2005,05,22,15,37,14.20
2005,05,22,15,38,14.10
2005,05,22,15,39,14.10
2005,05,22,15,40,14.00
2005,05,22,15,41,14.10
2005,05,22,15,42,14.10
2005,05,22,15,43,14.20
2005,05,22,15,44,14.20
2005,05,22,15,45,14.20
2005,05,22,15,46,14.20
2005,05,22,15,47,14.20
2005,05,22,15,48,14.20
2005,05,22,15,49,14.30
2005,05,22,15,50,14.30
2005,05,22,15,51,14.30
2005,05,22,15,52,14.20
2005,05,22,15,53,14.20
2005,05,22,15,54,14.30
2005,05,22,15,55,14.40
2005,05,22,15,56,14.40
2005,05,22,15,57,14.50
2005,05,22,15,58,14.60
2005,05,22,15,59,14.60
2005,05,22,16,00,14.60
2005,05,22,16,01,14.70
2005,05,22,16,02,14.70
2005,05,22,16,03,14.70
2005,05,22,16,04,14.70
2005,05,22,16,05,14.70
2005,05,22,16,06,14.80
2005,05,22,16,07,14.80
2005,05,22,16,08,14.80
2005,05,22,16,09,14.90
2005,05,22,16,10,14.90
2005,05,22,16,11,15.00
2005,05,22,16,12,15.00
2005,05,22,16,13,15.00
2005,05,22,16,14,15.00
2005,05,22,16,15,15.00
2005,05,22,16,16,14.90
2005,05,22,16,17,15.00
2005,05,22,16,18,14.80
2005,05,22,16,19,14.80
2005,05,22,16,20,14.80
2005,05,22,16,21,14.80
2005,05,22,16,22,14.90
2005,05,22,16,23,14.90
2005,05,22,16,24,14.90
2005,05,22,16,25,15.10
2005,05,22,16,26,15.20
2005,05,22,16,27,15.20
2005,05,22,16,28,15.40
2005,05,22,16,29,15.30
2005,05,22,16,30,15.30
2005,05,22,16,31,15.30
2005,05,22,16,32,15.20
2005,05,22,16,33,15.30
2005,05,22,16,34,15.40
2005,05,22,16,35,15.60
2005,05,22,16,36,15.60
2005,05,22,16,37,15.50
2005,05,22,16,38,15.40
2005,05,22,16,39,15.50
2005,05,22,16,40,15.60
2005,05,22,16,41,15.70
2005,05,22,16,42,15.50
2005,05,22,16,43,15.50
2005,05,22,16,44,15.50
2005,05,22,16,45,15.50
2005,05,22,16,46,15.30
2005,05,22,16,47,15.30
2005,05,22,16,48,15.30
2005,05,22,16,49,15.10
2005,05,22,16,50,15.10
2005,05,22,16,51,15.20
2005,05,22,16,52,15.10
2005,05,22,16,53,15.00
2005,05,22,16,54,14.90
2005,05,22,16,55,14.80
2005,05,22,16,56,14.80
2005,05,22,16,57,14.80
2005,05,22,16,58,14.80
2005,05,22,16,59,14.70
2005,05,22,17,00,14.70
2005,05,22,17,01,14.70
2005,05,22,17,02,14.70
2005,05,22,17,03,14.60
2005,05,22,17,04,14.50
2005,05,22,17,05,14.40
2005,05,22,17,06,14.30
2005,05,22,17,07,14.20
2005,05,22,17,08,14.20
2005,05,22,17,09,14.30
2005,05,22,17,10,14.30
2005,05,22,17,11,14.30
2005,05,22,17,12,14.30
2005,05,22,17,13,14.30
2005,05,22,17,14,14.40
2005,05,22,17,15,14.40
2005,05,22,17,16,14.20
2005,05,22,17,17,14.20
2005,05,22,17,18,14.20
2005,05,22,17,19,14.20
2005,05,22,17,20,14.00
2005,05,22,17,21,13.80
2005,05,22,17,22,13.80
2005,05,22,17,23,13.70
2005,05,22,17,24,13.50
2005,05,22,17,25,13.40
2005,05,22,17,26,13.50
2005,05,22,17,27,13.40
2005,05,22,17,28,13.30
2005,05,22,17,29,13.20
2005,05,22,17,30,13.20
2005,05,22,17,31,13.10
2005,05,22,17,32,13.20
2005,05,22,17,33,13.20
2005,05,22,17,34,13.40
2005,05,22,17,35,13.30
2005,05,22,17,36,13.30
2005,05,22,17,37,13.40
2005,05,22,17,38,13.40
2005,05,22,17,39,13.40
2005,05,22,17,40,13.30
2005,05,22,17,41,13.30
2005,05,22,17,42,13.30
2005,05,22,17,43,13.30
2005,05,22,17,44,13.30
2005,05,22,17,45,13.30
2005,05,22,17,46,13.50
2005,05,22,17,47,13.60
2005,05,22,17,48,13.70
2005,05,22,17,49,13.70
2005,05,22,17,50,13.80
2005,05,22,17,51,13.70
2005,05,22,17,52,13.80
2005,05,22,17,53,13.80
2005,05,22,17,54,13.80
2005,05,22,17,55,13.70
2005,05,22,17,56,13.70
2005,05,22,17,57,13.70
2005,05,22,17,58,13.70
2005,05,22,17,59,13.80
2005,05,22,18,00,13.90
2005,05,22,18,01,14.00
2005,05,22,18,02,14.00
2005,05,22,18,03,14.10
2005,05,22,18,04,14.20
2005,05,22,18,05,14.20
2005,05,22,18,06,14.30
2005,05,22,18,07,14.40
2005,05,22,18,08,14.50
2005,05,22,18,09,14.50
2005,05,22,18,10,14.60
2005,05,22,18,11,14.70
2005,05,22,18,12,14.70
2005,05,22,18,13,14.60
2005,05,22,18,14,14.50
2005,05,22,18,15,14.50
2005,05,22,18,16,14.40
2005,05,22,18,17,14.50
2005,05,22,18,18,14.50
2005,05,22,18,19,14.50
2005,05,22,18,20,14.40
2005,05,22,18,21,14.50
2005,05,22,18,22,14.50
2005,05,22,18,23,14.60
2005,05,22,18,24,14.70
2005,05,22,18,25,14.60
2005,05,22,18,26,14.60
2005,05,22,18,27,14.40
2005,05,22,18,28,14.30
2005,05,22,18,29,14.10
2005,05,22,18,30,14.00
2005,05,22,18,31,14.00
2005,05,22,18,32,13.90
2005,05,22,18,33,13.90
2005,05,22,18,34,14.00
2005,05,22,18,35,14.00
2005,05,22,18,36,14.10
2005,05,22,18,37,14.10
2005,05,22,18,38,14.10
2005,05,22,18,39,14.20
2005,05,22,18,40,14.20
2005,05,22,18,41,14.10
2005,05,22,18,42,14.00
2005,05,22,18,43,14.00
2005,05,22,18,44,14.10
2005,05,22,18,45,14.20
2005,05,22,18,46,14.20
2005,05,22,18,47,14.30
2005,05,22,18,48,14.30
2005,05,22,18,49,14.20
2005,05,22,18,50,14.10
2005,05,22,18,51,14.10
2005,05,22,18,52,14.10
2005,05,22,18,53,14.10
2005,05,22,18,54,14.10
2005,05,22,18,55,14.20
2005,05,22,18,56,14.10
2005,05,22,18,57,14.10
2005,05,22,18,58,14.10
2005,05,22,18,59,14.00
2005,05,22,19,00,14.00
2005,05,22,19,01,13.90
2005,05,22,19,02,13.90
2005,05,22,19,03,13.90
2005,05,22,19,04,13.90
2005,05,22,19,05,13.80
2005,05,22,19,06,13.90
2005,05,22,19,07,13.90
2005,05,22,19,08,13.80
2005,05,22,19,09,13.80
2005,05,22,19,10,13.80
2005,05,22,19,11,13.80
2005,05,22,19,12,13.80
2005,05,22,19,13,13.90
2005,05,22,19,14,13.90
2005,05,22,19,15,13.80
2005,05,22,19,16,13.70
2005,05,22,19,17,13.70
2005,05,22,19,18,13.70
2005,05,22,19,19,13.60
2005,05,22,19,20,13.60
2005,05,22,19,21,13.50
2005,05,22,19,22,13.50
2005,05,22,19,23,13.40
2005,05,22,19,24,13.40
2005,05,22,19,25,13.40
2005,05,22,19,26,13.40
2005,05,22,19,27,13.40
2005,05,22,19,28,13.50
2005,05,22,19,29,13.40
2005,05,22,19,30,13.40
2005,05,22,19,31,13.50
2005,05,22,19,32,13.50
2005,05,22,19,33,13.30
2005,05,22,19,34,13.30
2005,05,22,19,35,13.30
2005,05,22,19,36,13.20
2005,05,22,19,37,13.20
2005,05,22,19,38,13.20
2005,05,22,19,39,13.20
2005,05,22,19,40,13.20
2005,05,22,19,41,13.10
2005,05,22,19,42,13.00
2005,05,22,19,43,12.90
2005,05,22,19,44,12.80
2005,05,22,19,45,12.80
2005,05,22,19,46,12.80
2005,05,22,19,47,12.90
2005,05,22,19,48,12.80
2005,05,22,19,49,12.80
2005,05,22,19,50,12.80
2005,05,22,19,51,12.80
2005,05,22,19,52,12.70
2005,05,22,19,53,12.70
2005,05,22,19,54,12.70
2005,05,22,19,55,12.70
2005,05,22,19,56,12.70
2005,05,22,19,57,12.70
2005,05,22,19,58,12.60
2005,05,22,19,59,12.60
2005,05,22,20,00,12.60
2005,05,22,20,01,12.60
2005,05,22,20,02,12.50
2005,05,22,20,03,12.60
2005,05,22,20,04,12.60
2005,05,22,20,05,12.60
2005,05,22,20,06,12.50
2005,05,22,20,07,12.50
2005,05,22,20,08,12.50
2005,05,22,20,09,12.50
2005,05,22,20,10,12.50
2005,05,22,20,11,12.50
2005,05,22,20,12,12.50
2005,05,22,20,13,12.50
2005,05,22,20,14,12.40
2005,05,22,20,15,12.40
2005,05,22,20,16,12.40
2005,05,22,20,17,12.50
2005,05,22,20,18,12.50
2005,05,22,20,19,12.50
2005,05,22,20,20,12.50
2005,05,22,20,21,12.50
2005,05,22,20,22,12.50
2005,05,22,20,23,12.50
2005,05,22,20,24,12.50
2005,05,22,20,25,12.50
2005,05,22,20,26,12.50
2005,05,22,20,27,12.50
2005,05,22,20,28,12.50
2005,05,22,20,29,12.40
2005,05,22,20,30,12.40
2005,05,22,20,31,12.40
2005,05,22,20,32,12.30
2005,05,22,20,33,12.30
2005,05,22,20,34,12.30
2005,05,22,20,35,12.20
2005,05,22,20,36,12.20
2005,05,22,20,37,12.20
2005,05,22,20,38,12.20
2005,05,22,20,39,12.20
2005,05,22,20,40,12.20
2005,05,22,20,41,12.10
2005,05,22,20,42,12.10
2005,05,22,20,43,12.10
2005,05,22,20,44,12.10
2005,05,22,20,45,12.10
2005,05,22,20,46,12.10
2005,05,22,20,47,12.10
2005,05,22,20,48,12.10
2005,05,22,20,49,12.10
2005,05,22,20,50,12.10
2005,05,22,20,51,12.10
2005,05,22,20,52,12.10
2005,05,22,20,53,12.10
2005,05,22,20,54,12.10
2005,05,22,20,55,12.00
2005,05,22,20,56,12.00
2005,05,22,20,57,12.00
2005,05,22,20,58,11.90
2005,05,22,20,59,11.80
2005,05,22,21,00,11.80
2005,05,22,21,01,11.80
2005,05,22,21,02,11.80
2005,05,22,21,03,11.80
2005,05,22,21,04,11.80
2005,05,22,21,05,11.80
2005,05,22,21,06,11.80
2005,05,22,21,07,11.80
2005,05,22,21,08,11.80
2005,05,22,21,09,11.80
2005,05,22,21,10,11.80
2005,05,22,21,11,11.80
2005,05,22,21,12,11.80
2005,05,22,21,13,11.80
2005,05,22,21,14,11.80
2005,05,22,21,15,11.80
2005,05,22,21,16,11.80
2005,05,22,21,17,11.80
2005,05,22,21,18,11.80
2005,05,22,21,19,11.80
2005,05,22,21,20,11.70
2005,05,22,21,21,11.70
2005,05,22,21,22,11.70
2005,05,22,21,23,11.60
2005,05,22,21,24,11.60
2005,05,22,21,25,11.60
2005,05,22,21,26,11.60
2005,05,22,21,27,11.60
2005,05,22,21,28,11.60
2005,05,22,21,29,11.60
2005,05,22,21,30,11.70
2005,05,22,21,31,11.70
2005,05,22,21,32,11.70
2005,05,22,21,33,11.60
2005,05,22,21,34,11.70
2005,05,22,21,35,11.70
2005,05,22,21,36,11.80
2005,05,22,21,37,11.80
2005,05,22,21,38,11.80
2005,05,22,21,39,11.70
2005,05,22,21,40,11.70
2005,05,22,21,41,11.70
2005,05,22,21,42,11.70
2005,05,22,21,43,11.70
2005,05,22,21,44,11.70
2005,05,22,21,45,11.60
2005,05,22,21,46,11.60
2005,05,22,21,47,11.60
2005,05,22,21,48,11.60
2005,05,22,21,49,11.60
2005,05,22,21,50,11.60
2005,05,22,21,51,11.60
2005,05,22,21,52,11.60
2005,05,22,21,53,11.60
2005,05,22,21,54,11.60
2005,05,22,21,55,11.60
2005,05,22,21,56,11.60
2005,05,22,21,57,11.60
2005,05,22,21,58,11.60
2005,05,22,21,59,11.60
2005,05,22,22,00,11.60
2005,05,22,22,01,11.60
2005,05,22,22,02,11.60
2005,05,22,22,03,11.60
2005,05,22,22,04,11.60
2005,05,22,22,05,11.60
2005,05,22,22,06,11.60
2005,05,22,22,07,11.60
2005,05,22,22,08,11.60
2005,05,22,22,09,11.60
2005,05,22,22,10,11.60
2005,05,22,22,11,11.60
2005,05,22,22,12,11.60
2005,05,22,22,13,11.60
2005,05,22,22,14,11.60
2005,05,22,22,15,11.50
2005,05,22,22,16,11.40
2005,05,22,22,17,11.50
2005,05,22,22,18,11.60
2005,05,22,22,19,11.60
2005,05,22,22,20,11.60
2005,05,22,22,21,11.60
2005,05,22,22,22,11.60
2005,05,22,22,23,11.70
2005,05,22,22,24,11.70
2005,05,22,22,25,11.70
2005,05,22,22,26,11.70
2005,05,22,22,27,11.70
2005,05,22,22,28,11.70
2005,05,22,22,29,11.70
2005,05,22,22,30,11.70
2005,05,22,22,31,11.70
2005,05,22,22,32,11.70
2005,05,22,22,33,11.70
2005,05,22,22,34,11.80
2005,05,22,22,35,11.70
2005,05,22,22,36,11.70
2005,05,22,22,37,11.60
2005,05,22,22,38,11.60
2005,05,22,22,39,11.60
2005,05,22,22,40,11.60
2005,05,22,22,41,11.60
2005,05,22,22,42,11.60
2005,05,22,22,43,11.60
2005,05,22,22,44,11.70
2005,05,22,22,45,11.70
2005,05,22,22,46,11.70
2005,05,22,22,47,11.70
2005,05,22,22,48,11.70
2005,05,22,22,49,11.70
2005,05,22,22,50,11.70
2005,05,22,22,51,11.70
2005,05,22,22,52,11.70
2005,05,22,22,53,11.70
2005,05,22,22,54,11.70
2005,05,22,22,55,11.70
2005,05,22,22,56,11.60
2005,05,22,22,57,11.70
2005,05,22,22,58,11.70
2005,05,22,22,59,11.70
2005,05,22,23,00,11.70
2005,05,22,23,03,11.60
2005,05,22,23,04,11.40
2005,05,22,23,05,11.40
2005,05,22,23,06,11.40
2005,05,22,23,07,11.40
2005,05,22,23,08,11.40
2005,05,22,23,09,11.40
2005,05,22,23,10,11.30
2005,05,22,23,11,11.30
2005,05,22,23,12,11.30
2005,05,22,23,13,11.30
2005,05,22,23,14,11.30
2005,05,22,23,15,11.30
2005,05,22,23,16,11.30
2005,05,22,23,17,11.30
2005,05,22,23,18,11.30
2005,05,22,23,19,11.20
2005,05,22,23,20,11.20
2005,05,22,23,21,11.20
2005,05,22,23,22,11.20
2005,05,22,23,23,11.20
2005,05,22,23,24,11.20
2005,05,22,23,25,11.30
2005,05,22,23,26,11.30
2005,05,22,23,27,11.30
2005,05,22,23,28,11.30
2005,05,22,23,29,11.30
2005,05,22,23,30,11.20
2005,05,22,23,31,11.20
2005,05,22,23,32,11.20
2005,05,22,23,33,11.10
2005,05,22,23,34,11.10
2005,05,22,23,35,11.10
2005,05,22,23,36,11.10
2005,05,22,23,37,11.10
2005,05,22,23,38,11.10
2005,05,22,23,39,11.10
2005,05,22,23,40,11.10
2005,05,22,23,41,11.10
2005,05,22,23,42,11.20
2005,05,22,23,43,11.10
2005,05,22,23,44,11.10
2005,05,22,23,45,11.20
2005,05,22,23,46,11.10
2005,05,22,23,47,11.10
2005,05,22,23,48,11.10
2005,05,22,23,49,11.10
2005,05,22,23,50,11.10
2005,05,22,23,51,11.10
2005,05,22,23,52,11.10
2005,05,22,23,53,11.20
2005,05,22,23,54,11.10
2005,05,22,23,55,11.10
2005,05,22,23,56,11.10
2005,05,22,23,57,11.10
2005,05,22,23,58,11.00
2005,05,22,23,59,10.90
